[[{"header":{"parameterUnit":"m.s-1","parameterCategory":2,"la1":30.2991,"la2":30.254,"lo1":-89.0895,"lo2":-89.0444,"dy":0.0017,"dx":0.0017,"nx":28,"ny":28,"refTime":"2023-08-14T09:00:00:Z","depth":"0","parameterNumber":2,"parameterNumberName":"U-component_of_CURRENTS"},"data":[0,0,0,0,0,0,0,0,0,0,0,0,0,0,0,0,0,0,0,0,0,0,0,0,0,0,0,0,0,0,0,0,0,0,0,0,0,0,0,0,0,0,0,0,0,0,0,0,0,0,0,0,0,0,0,0,0,0,0.2107,0.2108,0,0.2124,0.2124,0.2124,0.2046,0.2044,0.2042,0.204,0.2009,0.201,0.2011,0,0,0,0,0,0,0,0,0,0,0,0,0,0.2115,0.2114,0.2107,0.2108,0.2108,0.2124,0.2124,0.2124,0.2046,0.2044,0.2041,0.2039,0.2009,0.201,0.2011,0,0,0,0,0,0,0,0,0,0,0,0,0,0.2117,0.2114,0.2107,0.2073,0.207,0.2124,0.2124,0.2124,0.2047,0.2044,0.204,0.2038,0.2008,0.201,0.2012,0.2084,0,0,0.2017,0.2017,0,0,0,0,0,0,0,0,0.2117,0.2116,0.2078,0.2075,0.2072,0.2082,0.2116,0.2109,0.2047,0.2053,0.204,0.2036,0.2033,0.2032,0.204,0.2082,0.2081,0.2017,0.2018,0.2018,0.2019,0,0,0,0,0,0,0,0.2117,0.2116,0.2112,0.2078,0.2075,0.2094,0.2089,0.2115,0.2057,0.2052,0.2047,0.2054,0.203,0.2038,0.2038,0.2081,0.2017,0.2018,0.2019,0.202,0.2131,0.2133,0,0,0,0,0,0,0.2117,0.2116,0.2111,0.2112,0.209,0.2096,0.2091,0.208,0.2058,0.2053,0.2057,0.205,0.2037,0.2036,0.2037,0.2066,0.2018,0.202,0.2021,0.2129,0.2132,0.2134,0,0,0,0,0,0,0.2117,0.2116,0.211,0.2117,0.2118,0.2098,0.2087,0.2082,0.2085,0.2062,0.2055,0.2065,0.2035,0.2035,0.2045,0.2066,0.2021,0.2022,0.2127,0.213,0.2133,0.216,0,0,0,0,0,0,0.2117,0.2116,0.2121,0.2117,0.2118,0.215,0.2091,0.2085,0.2096,0.2087,0.2068,0.2061,0.2032,0.2043,0.2047,0.2067,0.2024,0.2124,0.2128,0.2132,0.2156,0.2163,0.2169,0,0,0,0,0,0.2117,0.214,0.2121,0.2122,0.2121,0.2152,0.2155,0.2129,0.2099,0.2117,0.2086,0.2062,0.2069,0.2046,0.205,0.2071,0.2123,0.2127,0.2131,0.2153,0.2162,0.2169,0,0,0,0,0,0,0.2158,0.2135,0.2113,0.213,0.2141,0.2139,0.2164,0.2146,0.214,0.2126,0.2088,0.2081,0.2095,0.2096,0.2072,0.2118,0.2094,0.2099,0.2109,0.2117,0.2123,0.2101,0.2025,0,0,0,0,0,0.2169,0.2165,0.2162,0.2176,0.2188,0.2179,0.2192,0.2174,0.2167,0.2161,0.214,0.2128,0.2125,0.2127,0.2127,0.2166,0.2159,0.2186,0.2192,0.2197,0.2185,0.22,0.2205,0.2148,0.2148,0.2148,0,0,0.2183,0.2178,0.2171,0.2184,0.219,0.2199,0.2179,0.2205,0.2198,0.2163,0.2155,0.2151,0.214,0.2157,0.2167,0.2156,0.2215,0.2203,0.2207,0.2191,0.2205,0.221,0.2214,0.2151,0.2151,0.215,0,0,0.2216,0.2214,0.2219,0.2227,0.2243,0.224,0.225,0.2252,0.2243,0.2251,0.2213,0.2219,0.2226,0.2212,0.2207,0.2264,0.2244,0.2277,0.2293,0.2308,0.2312,0.2315,0.2325,0.2328,0.2284,0.2285,0.2285,0,0.2245,0.2226,0.2235,0.2245,0.2247,0.2254,0.226,0.2268,0.2265,0.2261,0.2249,0.2246,0.2245,0.2247,0.2258,0.2274,0.2277,0.2258,0.2313,0.2316,0.2319,0.2327,0.2331,0.2286,0.2286,0.2286,0.2286,0,0.2261,0.2251,0.227,0.2257,0.2275,0.2292,0.2294,0.2307,0.2299,0.2288,0.2297,0.2298,0.2287,0.2306,0.2294,0.2322,0.2316,0.2313,0.2284,0.2326,0.2333,0.2336,0.2289,0.2288,0.2288,0.2287,0,0,0.2308,0.228,0.2286,0.2263,0.2275,0.2288,0.2299,0.2306,0.2299,0.2311,0.2299,0.2318,0.2317,0.2314,0.2318,0.2339,0.2373,0.2338,0.2338,0.233,0.2404,0.2424,0.2429,0.2378,0.2379,0.2379,0.2404,0,0.2316,0.2312,0.2302,0.2291,0.2281,0.2286,0.2291,0.2299,0.2303,0.2301,0.2315,0.2311,0.2322,0.2323,0.2346,0.2357,0.2381,0.2366,0.2379,0.2379,0.2378,0.2434,0.2428,0.2452,0.2407,0.2408,0.2408,0,0.2319,0.2312,0.2303,0.2269,0.2273,0.2269,0.2272,0.2279,0.2287,0.2292,0.2297,0.2299,0.2323,0.2332,0.2372,0.2361,0.2385,0.2401,0.2402,0.2407,0.2406,0.2404,0.2459,0.2324,0.2413,0.2413,0.2412,0,0.2312,0.2303,0.2288,0.2279,0.2264,0.2261,0.2259,0.2269,0.227,0.2282,0.228,0.2302,0.2309,0.2344,0.2381,0.2378,0.2423,0.2423,0.2463,0.2464,0.2454,0.2453,0.2362,0.2457,0.2457,0.2457,0.2456,0,0.2297,0.227,0.2279,0.2262,0.2248,0.2249,0.2237,0.2243,0.2249,0.2236,0.227,0.2266,0.2315,0.2341,0.2378,0.2432,0.2424,0.247,0.2477,0.2467,0.2468,0.2344,0.2273,0.2457,0.2457,0.2457,0.2457,0,0.2238,0.2253,0.2222,0.2228,0.223,0.2216,0.2205,0.2196,0.2217,0.2201,0.2204,0.2241,0.2287,0.2338,0.2394,0.2429,0.2418,0.2497,0.2481,0.2487,0.2407,0.234,0.224,0.2223,0.2549,0.255,0.2551,0,0.2182,0.2171,0.2193,0.2184,0.2172,0.216,0.2152,0.2174,0.2159,0.2176,0.2161,0.2213,0.2234,0.2338,0.2421,0.2501,0.2422,0.2544,0.2546,0.2404,0.2333,0.2248,0.2234,0.2545,0.2545,0.2546,0.2546,0,0.2066,0.2095,0.2084,0.2094,0.209,0.2074,0.2057,0.2057,0.2079,0.2075,0.2077,0.2103,0.2226,0.2298,0.2426,0.25,0.2432,0.2556,0.2411,0.2326,0.2224,0.221,0.2514,0.255,0.255,0.2549,0.2549,0.2549,0.1964,0.1949,0.1972,0.1975,0.1974,0.1965,0.1927,0.1928,0.1915,0.1883,0.1967,0.198,0.2129,0.2317,0.2404,0.2481,0.2438,0.2439,0.2372,0.2299,0.2266,0.258,0.2624,0.2624,0.2624,0.2624,0.2624,0,0.183,0.1845,0.1841,0.1842,0.1814,0.1853,0.1839,0.1798,0.1757,0.1773,0.1768,0.187,0.1986,0.2153,0.2304,0.2273,0.2271,0.2203,0.2054,0.2058,0.234,0.2323,0.23,0.23,0.2301,0.2301,0.2301,0.2301,0.1758,0.173,0.1761,0.1694,0.1686,0.162,0.1602,0.1569,0.1564,0.1531,0.1546,0.161,0.1778,0.1888,0.1962,0.1991,0.1855,0.18,0.1748,0.1891,0.1906,0.192,0.1885,0.1772,0.1771,0.1478,0.1475,0.1473]},{"header":{"parameterUnit":"m.s-1","parameterCategory":2,"la1":30.2991,"la2":30.254,"lo1":-89.0895,"lo2":-89.0444,"dy":0.0017,"dx":0.0017,"nx":28,"ny":28,"refTime":"2023-08-14T09:00:00:Z","depth":"0","parameterNumber":3,"parameterNumberName":"V-component_of_CURRENTS"},"data":[0,0,0,0,0,0,0,0,0,0,0,0,0,0,0,0,0,0,0,0,0,0,0,0,0,0,0,0,0,0,0,0,0,0,0,0,0,0,0,0,0,0,0,0,0,0,0,0,0,0,0,0,0,0,0,0,0,0,-0.1462,-0.1462,0,-0.1435,-0.1434,-0.1433,-0.1391,-0.1391,-0.139,-0.139,-0.1297,-0.1295,-0.1292,0,0,0,0,0,0,0,0,0,0,0,0,0,-0.1494,-0.1494,-0.1462,-0.1462,-0.1462,-0.1435,-0.1434,-0.1433,-0.1391,-0.1391,-0.139,-0.139,-0.1297,-0.1295,-0.1292,0,0,0,0,0,0,0,0,0,0,0,0,0,-0.1471,-0.1493,-0.1462,-0.1441,-0.1439,-0.1435,-0.1434,-0.1433,-0.1391,-0.1391,-0.139,-0.139,-0.1298,-0.1295,-0.1292,-0.1283,0,0,-0.1282,-0.1281,0,0,0,0,0,0,0,0,-0.1472,-0.1469,-0.1444,-0.1442,-0.144,-0.1419,-0.1411,-0.1381,-0.1392,-0.1405,-0.139,-0.1389,-0.1335,-0.1328,-0.132,-0.1279,-0.1275,-0.1282,-0.128,-0.1278,-0.1278,0,0,0,0,0,0,0,-0.1474,-0.1471,-0.1447,-0.1444,-0.1442,-0.1439,-0.1434,-0.1405,-0.1369,-0.1404,-0.1402,-0.1405,-0.1332,-0.1323,-0.1317,-0.1274,-0.1282,-0.1279,-0.1277,-0.1276,-0.1184,-0.1184,0,0,0,0,0,0,-0.1485,-0.1472,-0.1448,-0.1447,-0.146,-0.1439,-0.1434,-0.1423,-0.1371,-0.1364,-0.1406,-0.1404,-0.1329,-0.1321,-0.1313,-0.1282,-0.1279,-0.1275,-0.1274,-0.1185,-0.1184,-0.1184,0,0,0,0,0,0,-0.1486,-0.1483,-0.1449,-0.1463,-0.1459,-0.1439,-0.1428,-0.1423,-0.1416,-0.1374,-0.1365,-0.1405,-0.1328,-0.1318,-0.1277,-0.1279,-0.1274,-0.1271,-0.1185,-0.1185,-0.1184,-0.123,0,0,0,0,0,0,-0.1487,-0.1483,-0.1478,-0.1463,-0.1459,-0.1452,-0.1429,-0.1423,-0.1421,-0.1418,-0.137,-0.1361,-0.1327,-0.1282,-0.1274,-0.1274,-0.1269,-0.1186,-0.1185,-0.1184,-0.123,-0.1231,-0.1233,0,0,0,0,0,-0.1488,-0.1488,-0.1477,-0.1475,-0.1452,-0.1453,-0.1451,-0.1432,-0.1422,-0.1423,-0.1378,-0.1362,-0.127,-0.1279,-0.1269,-0.1269,-0.1187,-0.1185,-0.1184,-0.1229,-0.1231,-0.1233,0,0,0,0,0,0,-0.151,-0.1484,-0.1471,-0.1466,-0.1463,-0.1448,-0.1451,-0.144,-0.1408,-0.1399,-0.1355,-0.1342,-0.1306,-0.128,-0.129,-0.1238,-0.1226,-0.1223,-0.1263,-0.1265,-0.1267,-0.1273,-0.1266,0,0,0,0,0,-0.1511,-0.1496,-0.1484,-0.1482,-0.1482,-0.1468,-0.1466,-0.1454,-0.1429,-0.1415,-0.138,-0.1336,-0.1294,-0.1274,-0.1235,-0.121,-0.1196,-0.1203,-0.1204,-0.1206,-0.1203,-0.1184,-0.1184,-0.118,-0.118,-0.118,0,0,-0.152,-0.1506,-0.1497,-0.1485,-0.148,-0.1473,-0.1464,-0.1467,-0.1453,-0.1409,-0.1377,-0.1341,-0.1288,-0.1252,-0.1235,-0.1232,-0.1202,-0.1205,-0.1207,-0.1202,-0.1183,-0.1183,-0.1184,-0.1179,-0.1179,-0.1179,0,0,-0.1537,-0.152,-0.1515,-0.1506,-0.1501,-0.1488,-0.1492,-0.1477,-0.1464,-0.1433,-0.1393,-0.1359,-0.1302,-0.1264,-0.1237,-0.1225,-0.121,-0.1215,-0.1231,-0.1213,-0.1214,-0.1214,-0.1211,-0.1211,-0.1219,-0.1219,-0.1219,0,-0.1561,-0.1532,-0.1519,-0.1513,-0.1506,-0.1496,-0.1492,-0.1478,-0.1448,-0.1435,-0.1426,-0.1339,-0.1305,-0.1254,-0.1249,-0.1231,-0.1222,-0.1232,-0.1218,-0.1217,-0.1217,-0.1214,-0.1213,-0.1221,-0.1221,-0.122,-0.122,0,-0.1566,-0.1541,-0.1545,-0.1519,-0.1514,-0.1512,-0.1494,-0.1482,-0.1465,-0.1445,-0.1403,-0.1356,-0.1305,-0.1293,-0.1265,-0.1242,-0.1239,-0.1224,-0.1219,-0.1221,-0.1217,-0.1215,-0.1224,-0.1223,-0.1223,-0.1222,0,0,-0.1645,-0.1561,-0.157,-0.1535,-0.1513,-0.151,-0.1492,-0.1472,-0.1455,-0.1428,-0.1401,-0.1345,-0.1332,-0.1299,-0.1269,-0.1255,-0.1256,-0.1244,-0.1242,-0.1253,-0.1228,-0.1193,-0.1188,-0.1242,-0.1242,-0.1241,-0.1233,0,-0.1663,-0.1627,-0.159,-0.1558,-0.1532,-0.1505,-0.1489,-0.1467,-0.1445,-0.1415,-0.1379,-0.1339,-0.1331,-0.1308,-0.1295,-0.1251,-0.125,-0.126,-0.1214,-0.1212,-0.1191,-0.1184,-0.1091,-0.1072,-0.1231,-0.1231,-0.1231,0,-0.1692,-0.1652,-0.162,-0.1539,-0.1534,-0.1517,-0.1486,-0.1467,-0.1428,-0.1411,-0.1378,-0.1348,-0.1312,-0.1309,-0.1263,-0.127,-0.1259,-0.1237,-0.1236,-0.1183,-0.1173,-0.1091,-0.1063,-0.1013,-0.1228,-0.1228,-0.1228,0,-0.174,-0.1678,-0.1643,-0.1621,-0.1544,-0.1529,-0.15,-0.1468,-0.1441,-0.1408,-0.1376,-0.1346,-0.1303,-0.1292,-0.1251,-0.126,-0.1201,-0.1208,-0.1172,-0.117,-0.1069,-0.1059,-0.0993,-0.1192,-0.1192,-0.1193,-0.1193,0,-0.1763,-0.1731,-0.1655,-0.1632,-0.1594,-0.1547,-0.1513,-0.1487,-0.1437,-0.1382,-0.1374,-0.1312,-0.1295,-0.1253,-0.1248,-0.1194,-0.1203,-0.1171,-0.1159,-0.1084,-0.1075,-0.1009,-0.1035,-0.1192,-0.1192,-0.1192,-0.1192,0,-0.179,-0.175,-0.1692,-0.1621,-0.1604,-0.1577,-0.15,-0.1465,-0.1431,-0.1356,-0.134,-0.1278,-0.1214,-0.1201,-0.1161,-0.1165,-0.113,-0.1123,-0.1043,-0.1022,-0.0951,-0.0984,-0.1021,-0.1061,-0.109,-0.1089,-0.1088,0,-0.1775,-0.1754,-0.1692,-0.166,-0.1618,-0.1567,-0.1528,-0.1476,-0.142,-0.1312,-0.1262,-0.1189,-0.1099,-0.1045,-0.1031,-0.1021,-0.1064,-0.0966,-0.0967,-0.0927,-0.0956,-0.1051,-0.1091,-0.0861,-0.0858,-0.0856,-0.0854,0,-0.1733,-0.1733,-0.1686,-0.1634,-0.159,-0.1526,-0.145,-0.1411,-0.1328,-0.1244,-0.111,-0.1034,-0.0957,-0.0863,-0.0866,-0.0872,-0.0962,-0.0922,-0.0885,-0.0774,-0.0868,-0.0906,-0.0908,-0.0835,-0.0837,-0.0838,-0.0839,-0.084,-0.1693,-0.1664,-0.1624,-0.157,-0.1526,-0.1453,-0.1376,-0.1288,-0.1179,-0.0991,-0.0967,-0.0775,-0.0718,-0.0678,-0.071,-0.0679,-0.0822,-0.0664,-0.0711,-0.0816,-0.0838,-0.0811,-0.0722,-0.0724,-0.0725,-0.0726,-0.0726,0,-0.1607,-0.1587,-0.1543,-0.147,-0.1399,-0.1395,-0.129,-0.1186,-0.1025,-0.0848,-0.0693,-0.0479,-0.0401,-0.0399,-0.0394,-0.0437,-0.0551,-0.0466,-0.0544,-0.0602,-0.0534,-0.05,-0.0352,-0.0352,-0.0352,-0.0353,-0.0353,-0.0353,-0.1553,-0.1495,-0.1482,-0.135,-0.1298,-0.1167,-0.1093,-0.0963,-0.0817,-0.0528,-0.0313,-0.0198,-0.0138,-0.0197,-0.0223,-0.0264,-0.0388,-0.0401,-0.0527,-0.0395,-0.0416,-0.0436,-0.0404,-0.0239,-0.0239,-0.0568,-0.057,-0.0571]}],[{"header":{"parameterUnit":"m.s-1","parameterCategory":2,"la1":30.2991,"la2":30.254,"lo1":-89.0895,"lo2":-89.0444,"dy":0.0017,"dx":0.0017,"nx":28,"ny":28,"refTime":"2023-08-14T09:00:00:Z","depth":"2","parameterNumber":2,"parameterNumberName":"U-component_of_CURRENTS"},"data":[0,0,0,0,0,0,0,0,0,0,0,0,0,0,0,0,0,0,0,0,0,0,0,0,0,0,0,0,0,0,0,0,0,0,0,0,0,0,0,0,0,0,0,0,0,0,0,0,0,0,0,0,0,0,0,0,0,0,-0.0329,-0.0328,0,-0.0266,-0.0265,-0.0265,-0.028,-0.0282,-0.0283,-0.0284,-0.0242,-0.024,-0.0238,0,0,0,0,0,0,0,0,0,0,0,0,0,-0.0429,-0.0428,-0.0329,-0.0328,-0.0327,-0.0266,-0.0265,-0.0265,-0.028,-0.0282,-0.0283,-0.0284,-0.0243,-0.024,-0.0238,0,0,0,0,0,0,0,0,0,0,0,0,0,-0.0379,-0.0427,-0.0329,-0.0327,-0.0326,-0.0266,-0.0265,-0.0264,-0.028,-0.0282,-0.0283,-0.0285,-0.0244,-0.0241,-0.0237,-0.0182,0,0,-0.0227,-0.0226,0,0,0,0,0,0,0,0,-0.0382,-0.0375,-0.0328,-0.0327,-0.0326,-0.0282,-0.0286,-0.0238,-0.0279,-0.0298,-0.0284,-0.0286,-0.0256,-0.0252,-0.0237,-0.018,-0.0178,-0.0227,-0.0225,-0.0224,-0.0223,0,0,0,0,0,0,0,-0.0385,-0.0378,-0.0305,-0.0327,-0.0326,-0.0318,-0.0313,-0.0276,-0.0269,-0.0297,-0.0297,-0.0289,-0.0256,-0.024,-0.0236,-0.0178,-0.0227,-0.0224,-0.0222,-0.0221,0.0001,0.0005,0,0,0,0,0,0,-0.0391,-0.0381,-0.0306,-0.0303,-0.0358,-0.0315,-0.031,-0.0295,-0.0269,-0.0266,-0.0287,-0.029,-0.0244,-0.024,-0.0234,-0.0103,-0.0224,-0.0221,-0.0219,-0.0003,0.0002,0.0006,0,0,0,0,0,0,-0.0393,-0.0385,-0.0309,-0.0341,-0.033,-0.0312,-0.0295,-0.0293,-0.0261,-0.0261,-0.026,-0.0256,-0.0246,-0.0239,-0.0167,-0.0104,-0.0219,-0.0216,-0.0007,-0.0001,0.0004,0.0119,0,0,0,0,0,0,-0.0396,-0.0386,-0.0362,-0.034,-0.0329,-0.0249,-0.0293,-0.029,-0.0254,-0.0256,-0.0234,-0.0233,-0.0247,-0.0172,-0.0164,-0.0102,-0.0213,-0.0012,-0.0005,0.0002,0.011,0.0128,0.0143,0,0,0,0,0,-0.04,-0.0355,-0.0361,-0.0352,-0.0302,-0.0247,-0.0238,-0.0233,-0.025,-0.0215,-0.0197,-0.0233,-0.012,-0.0165,-0.0157,-0.0093,-0.0016,-0.0007,0.0002,0.0102,0.0124,0.0142,0,0,0,0,0,0,-0.0358,-0.0351,-0.0358,-0.0306,-0.0272,-0.0249,-0.0211,-0.0211,-0.0168,-0.0167,-0.0181,-0.0176,-0.0087,-0.0096,-0.0146,-0.0004,-0.0073,-0.0062,0.0001,0.0021,0.0037,0.0025,-0.0211,0,0,0,0,0,-0.0345,-0.0327,-0.0303,-0.0257,-0.0239,-0.0222,-0.0195,-0.0188,-0.0155,-0.0139,-0.0121,-0.0091,-0.0043,-0.0019,0.002,0.0099,0.0102,0.0148,0.0164,0.0178,0.0178,0.0245,0.0267,0.0035,0.0035,0.0035,0,0,-0.0314,-0.0307,-0.0293,-0.0249,-0.0226,-0.0178,-0.0209,-0.0152,-0.0105,-0.0138,-0.0055,-0.0027,-0.0006,0.0083,0.0121,0.0081,0.0256,0.0189,0.0201,0.0193,0.0257,0.0279,0.0299,0.0041,0.004,0.0039,0,0,-0.025,-0.0236,-0.0205,-0.0175,-0.0135,-0.0119,-0.0098,-0.0054,-0.0028,0.0055,0.0049,0.0117,0.0183,0.0215,0.0236,0.0372,0.0345,0.039,0.0459,0.0526,0.0544,0.0561,0.0624,0.0645,0.0393,0.0393,0.0393,0,-0.0206,-0.0175,-0.0176,-0.0134,-0.0102,-0.0091,-0.0033,0.0007,0.0073,0.0111,0.0097,0.0229,0.0246,0.0351,0.0396,0.0408,0.0437,0.0376,0.0545,0.0561,0.0575,0.0636,0.0658,0.04,0.0399,0.0398,0.0397,0,-0.0137,-0.0097,-0.0064,-0.0026,0.0017,0.0076,0.0115,0.0175,0.0204,0.0238,0.0355,0.0395,0.0463,0.0495,0.0484,0.061,0.0596,0.0559,0.0484,0.0605,0.0663,0.0683,0.0409,0.0407,0.0405,0.0403,0,0,-0.0053,-0.0028,-0.0009,0.0013,0.0075,0.0119,0.0208,0.029,0.0346,0.0426,0.0509,0.0612,0.0625,0.0651,0.0663,0.0719,0.0859,0.0687,0.0687,0.0733,0.1017,0.1012,0.1032,0.0851,0.0854,0.0857,0.1025,0,0.0012,0.0073,0.0083,0.0176,0.0216,0.0251,0.0328,0.0404,0.0461,0.0548,0.0612,0.0696,0.0687,0.0726,0.0792,0.0833,0.0914,0.0817,0.0907,0.0909,0.0876,0.1056,0.0857,0.099,0.1044,0.1047,0.105,0,0.009,0.0111,0.0188,0.0247,0.0273,0.0339,0.0445,0.0512,0.0623,0.0666,0.076,0.0793,0.0912,0.0868,0.1027,0.0966,0.1013,0.1038,0.1045,0.1006,0.0942,0.0875,0.1024,0.1083,0.108,0.1078,0.1076,0,0.0128,0.02,0.025,0.0275,0.0346,0.0409,0.0462,0.0565,0.0624,0.0744,0.0795,0.0921,0.0992,0.1074,0.1143,0.1096,0.1297,0.1231,0.1282,0.1281,0.1111,0.109,0.136,0.136,0.136,0.1359,0.1359,0,0.0189,0.0252,0.0273,0.0308,0.0394,0.0438,0.0544,0.0611,0.0705,0.0785,0.0857,0.0946,0.1046,0.1159,0.1203,0.1328,0.1361,0.1339,0.1343,0.1151,0.1132,0.1188,0.1166,0.1366,0.1364,0.1363,0.1362,0,0.0257,0.0262,0.0327,0.0385,0.0415,0.0483,0.0577,0.0637,0.0724,0.0829,0.0871,0.1005,0.1159,0.1256,0.1401,0.1414,0.1512,0.1542,0.1316,0.1292,0.1434,0.1416,0.1627,0.1629,0.163,0.1631,0.1632,0,0.0298,0.0327,0.0376,0.0402,0.0444,0.0527,0.0578,0.0655,0.0707,0.0865,0.0915,0.1093,0.122,0.1441,0.1474,0.1587,0.1608,0.148,0.1358,0.149,0.1471,0.1451,0.1432,0.1188,0.1185,0.1183,0.1181,0,0.0372,0.0383,0.0413,0.0453,0.0503,0.0549,0.0625,0.0668,0.0759,0.085,0.1006,0.1124,0.1305,0.1331,0.1457,0.1493,0.1441,0.1441,0.1666,0.115,0.1089,0.1066,0.1059,0.1161,0.1163,0.1164,0.1165,0.1166,0.0429,0.0446,0.0454,0.051,0.0548,0.0584,0.0645,0.069,0.0779,0.0922,0.1021,0.1126,0.1139,0.1239,0.1289,0.1321,0.1397,0.1315,0.1316,0.132,0.1239,0.1183,0.1259,0.1261,0.1263,0.1265,0.1267,0,0.0479,0.0485,0.0511,0.054,0.0588,0.0619,0.0685,0.0724,0.0826,0.0921,0.1055,0.0919,0.0955,0.1014,0.0989,0.1047,0.1005,0.1057,0.0918,0.0936,0.0953,0.0848,0.0768,0.0767,0.0767,0.0766,0,0,0.0497,0.0513,0.051,0.0576,0.0631,0.0681,0.0747,0.0772,0.0827,0.0865,0.0865,0.0969,0.0943,0.0794,0.0811,0.0789,0.0892,0.0804,0.1186,0.1038,0.1055,0.1067,0.0923,0,0,0,0,0]},{"header":{"parameterUnit":"m.s-1","parameterCategory":2,"la1":30.2991,"la2":30.254,"lo1":-89.0895,"lo2":-89.0444,"dy":0.0017,"dx":0.0017,"nx":28,"ny":28,"refTime":"2023-08-14T09:00:00:Z","depth":"2","parameterNumber":3,"parameterNumberName":"V-component_of_CURRENTS"},"data":[0,0,0,0,0,0,0,0,0,0,0,0,0,0,0,0,0,0,0,0,0,0,0,0,0,0,0,0,0,0,0,0,0,0,0,0,0,0,0,0,0,0,0,0,0,0,0,0,0,0,0,0,0,0,0,0,0,0,0.0322,0.0321,0,0.0289,0.0289,0.0288,0.021,0.0209,0.0207,0.0205,0.01,0.0098,0.0097,0,0,0,0,0,0,0,0,0,0,0,0,0,0.0293,0.0294,0.0322,0.0321,0.0321,0.0289,0.0289,0.0288,0.021,0.0208,0.0207,0.0205,0.01,0.0098,0.0097,0,0,0,0,0,0,0,0,0,0,0,0,0,0.0288,0.0295,0.0322,0.0278,0.0274,0.0289,0.0289,0.0288,0.0211,0.0208,0.0206,0.0204,0.0101,0.0099,0.0097,0.0133,0,0,0.0091,0.009,0,0,0,0,0,0,0,0,0.0288,0.0289,0.0285,0.0281,0.0277,0.0251,0.024,0.0233,0.0211,0.0235,0.0205,0.0203,0.0146,0.014,0.014,0.0128,0.0124,0.0091,0.0089,0.0089,0.0088,0,0,0,0,0,0,0,0.0289,0.029,0.0309,0.0285,0.028,0.0253,0.0249,0.0239,0.0203,0.0233,0.0227,0.0224,0.0142,0.0142,0.0137,0.0122,0.0091,0.0089,0.0088,0.0087,0.008,0.0081,0,0,0,0,0,0,0.0297,0.0291,0.031,0.0308,0.0277,0.0255,0.0252,0.0262,0.0204,0.0194,0.0226,0.0221,0.0147,0.0139,0.0132,0.0132,0.0089,0.0087,0.0086,0.008,0.0081,0.0082,0,0,0,0,0,0,0.0297,0.03,0.0311,0.0297,0.0297,0.0259,0.0271,0.0263,0.0238,0.02,0.0188,0.0207,0.0144,0.0135,0.011,0.0129,0.0086,0.0084,0.0078,0.008,0.0081,0.0157,0,0,0,0,0,0,0.0297,0.0301,0.0298,0.0299,0.0298,0.0318,0.0273,0.0264,0.0242,0.0233,0.0181,0.017,0.0142,0.0114,0.0109,0.0125,0.0082,0.0077,0.0079,0.0081,0.0154,0.0161,0.0168,0,0,0,0,0,0.0296,0.0311,0.0298,0.0299,0.03,0.0319,0.0316,0.0279,0.0243,0.0245,0.0203,0.017,0.0122,0.0113,0.0107,0.0123,0.0076,0.0078,0.0081,0.015,0.016,0.0168,0,0,0,0,0,0,0.0284,0.0305,0.029,0.0306,0.0308,0.0305,0.0296,0.0277,0.0249,0.0226,0.0183,0.0171,0.0158,0.0132,0.0124,0.0127,0.0094,0.0095,0.0149,0.0158,0.0165,0.0181,0.0081,0,0,0,0,0,0.0286,0.0304,0.0315,0.0321,0.0325,0.0308,0.0303,0.0287,0.0268,0.0251,0.0219,0.0185,0.0171,0.0154,0.0137,0.014,0.0117,0.0147,0.0154,0.016,0.017,0.0156,0.0162,0.0089,0.0089,0.0089,0,0,0.028,0.0292,0.0299,0.032,0.0312,0.0338,0.0298,0.0297,0.0311,0.0246,0.024,0.0208,0.0177,0.0179,0.0171,0.0154,0.0169,0.0163,0.0168,0.0175,0.0159,0.0166,0.0172,0.0091,0.009,0.009,0,0,0.0294,0.0291,0.0316,0.0332,0.0335,0.0339,0.0339,0.0338,0.0324,0.0327,0.0284,0.0265,0.0239,0.0228,0.0217,0.0256,0.0209,0.0243,0.0291,0.0278,0.0284,0.0289,0.027,0.0273,0.0246,0.0246,0.0246,0,0.027,0.0318,0.0322,0.0355,0.0366,0.0344,0.0375,0.0377,0.0365,0.0362,0.0329,0.0301,0.027,0.0281,0.0291,0.0274,0.025,0.0261,0.0288,0.0292,0.0296,0.0275,0.0277,0.025,0.0249,0.0249,0.0249,0,0.0324,0.0348,0.0362,0.0403,0.0421,0.0439,0.0455,0.0457,0.0434,0.0432,0.0426,0.0392,0.0369,0.0365,0.0338,0.0355,0.0325,0.0299,0.0267,0.0308,0.0284,0.0284,0.0255,0.0254,0.0253,0.0252,0,0,0.0273,0.0381,0.0372,0.0407,0.0446,0.0465,0.0499,0.0524,0.053,0.0519,0.0528,0.0513,0.0475,0.0461,0.0426,0.0421,0.0426,0.0373,0.037,0.0357,0.0388,0.0383,0.0382,0.0398,0.0399,0.0399,0.0361,0,0.0291,0.0379,0.0424,0.0481,0.0525,0.0537,0.0573,0.059,0.0584,0.0591,0.0566,0.0548,0.0518,0.0487,0.0489,0.0435,0.0431,0.0439,0.0349,0.0346,0.0338,0.0385,0.0381,0.0348,0.0362,0.0362,0.0362,0,0.0304,0.037,0.0443,0.0535,0.0549,0.0569,0.0602,0.0635,0.0651,0.064,0.0631,0.0604,0.0594,0.0552,0.0511,0.0511,0.0461,0.0426,0.0423,0.0393,0.0343,0.0309,0.0348,0.0362,0.0362,0.0362,0.0362,0,0.0258,0.0366,0.0425,0.0455,0.0558,0.0563,0.0593,0.0622,0.0637,0.0642,0.0632,0.0637,0.0597,0.0568,0.05,0.0494,0.0452,0.0428,0.0385,0.0383,0.0352,0.0347,0.0407,0.0407,0.0407,0.0407,0.0407,0,0.0259,0.0288,0.0398,0.0423,0.0469,0.0536,0.055,0.0581,0.0606,0.0615,0.0626,0.0633,0.0594,0.0569,0.0521,0.046,0.0462,0.0408,0.0381,0.0378,0.0376,0.0363,0.0358,0.0405,0.0406,0.0406,0.0406,0,0.0181,0.0263,0.0322,0.0421,0.0443,0.0454,0.0506,0.0528,0.0546,0.0552,0.0544,0.06,0.0582,0.055,0.0497,0.0462,0.0415,0.0386,0.0387,0.0363,0.035,0.035,0.0349,0.0348,0.0348,0.0348,0.0348,0,0.0161,0.0188,0.0281,0.0308,0.0333,0.0367,0.0398,0.0461,0.0485,0.0536,0.0545,0.0552,0.0597,0.0552,0.0486,0.0421,0.0404,0.0352,0.0354,0.0375,0.0348,0.0349,0.0349,0.0336,0.0336,0.0336,0.0336,0,0.011,0.0118,0.0171,0.0221,0.0249,0.0316,0.0356,0.037,0.0441,0.0459,0.051,0.0562,0.0565,0.0545,0.0476,0.0436,0.0373,0.0346,0.0363,0.0358,0.0362,0.0336,0.0337,0.0334,0.0334,0.0334,0.0334,0.0334,0.0038,0.0053,0.0106,0.015,0.018,0.0242,0.0266,0.0335,0.0379,0.0429,0.0502,0.0594,0.061,0.0569,0.046,0.0333,0.0371,0.0323,0.0324,0.0325,0.0337,0.0342,0.0311,0.0311,0.0311,0.0311,0.0311,0,-0.0005,0.0015,0.0049,0.0113,0.0122,0.0163,0.0233,0.0286,0.0324,0.0427,0.0488,0.0574,0.0586,0.0551,0.0355,0.0274,0.0272,0.024,0.0241,0.0246,0.0249,0.0256,0.0208,0.0207,0.0206,0.0205,0,0,-0.0021,0.0004,0.0043,0.0052,0.0063,0.0105,0.0128,0.0223,0.0318,0.0442,0.0526,0.068,0.0675,0.0518,0.0403,0.0265,0.0267,0.0254,0.0353,0.0371,0.0374,0.0324,0.0345,0,0,0,0,0]}],[{"header":{"parameterUnit":"m.s-1","parameterCategory":2,"la1":30.2991,"la2":30.254,"lo1":-89.0895,"lo2":-89.0444,"dy":0.0017,"dx":0.0017,"nx":28,"ny":28,"refTime":"2023-08-14T09:00:00:Z","depth":"4","parameterNumber":2,"parameterNumberName":"U-component_of_CURRENTS"},"data":[0,0,0,0,0,0,0,0,0,0,0,0,0,0,0,0,0,0,0,0,0,0,0,0,0,0,0,0,0,0,0,0,0,0,0,0,0,0,0,0,0,0,0,0,0,0,0,0,0,0,0,0,0,0,0,0,0,0,-0.0499,-0.05,0,-0.0565,-0.0566,-0.0567,-0.0606,-0.0606,-0.0606,-0.0606,-0.0679,-0.0681,-0.0683,0,0,0,0,0,0,0,0,0,0,0,0,0,-0.0449,-0.0449,-0.0499,-0.05,-0.05,-0.0565,-0.0566,-0.0567,-0.0606,-0.0606,-0.0606,-0.0606,-0.0679,-0.0681,-0.0683,0,0,0,0,0,0,0,0,0,0,0,0,0,-0.049,-0.0449,-0.0499,-0.0526,-0.0529,-0.0565,-0.0566,-0.0567,-0.0606,-0.0606,-0.0606,-0.0606,-0.0678,-0.0681,-0.0684,-0.0702,0,0,-0.0693,-0.0694,0,0,0,0,0,0,0,0,-0.0488,-0.0492,-0.0522,-0.0524,-0.0528,-0.0575,-0.0575,-0.0612,-0.0606,-0.0579,-0.0606,-0.0606,-0.0644,-0.065,-0.0665,-0.0706,-0.0709,-0.0693,-0.0695,-0.0696,-0.0697,0,0,0,0,0,0,0,-0.0485,-0.049,-0.0528,-0.0522,-0.0526,-0.0549,-0.0555,-0.0582,-0.0613,-0.0582,-0.0584,-0.0588,-0.0646,-0.0662,-0.0667,-0.071,-0.0693,-0.0695,-0.0697,-0.0698,-0.0933,-0.0937,0,0,0,0,0,0,-0.047,-0.0487,-0.0525,-0.0529,-0.0505,-0.0549,-0.0556,-0.0562,-0.0612,-0.0619,-0.0588,-0.0589,-0.0657,-0.0664,-0.067,-0.0833,-0.0696,-0.0699,-0.07,-0.0928,-0.0934,-0.0939,0,0,0,0,0,0,-0.0469,-0.0473,-0.0523,-0.0508,-0.0515,-0.055,-0.0557,-0.0563,-0.0598,-0.0617,-0.0624,-0.0618,-0.0657,-0.0666,-0.0716,-0.083,-0.07,-0.0703,-0.0923,-0.093,-0.0936,-0.107,0,0,0,0,0,0,-0.0467,-0.0472,-0.0494,-0.0507,-0.0515,-0.0557,-0.0557,-0.0564,-0.0598,-0.0602,-0.0644,-0.065,-0.0658,-0.0712,-0.0719,-0.0832,-0.0705,-0.0917,-0.0926,-0.0934,-0.106,-0.1081,-0.1098,0,0,0,0,0,-0.0465,-0.0505,-0.0495,-0.05,-0.0537,-0.0558,-0.0566,-0.0591,-0.06,-0.0622,-0.0653,-0.065,-0.0773,-0.0716,-0.0724,-0.0841,-0.0913,-0.0924,-0.0933,-0.1052,-0.1077,-0.1098,0,0,0,0,0,0,-0.049,-0.0513,-0.0502,-0.0544,-0.0548,-0.0564,-0.0619,-0.0604,-0.0647,-0.0682,-0.0672,-0.0681,-0.0779,-0.0783,-0.0721,-0.0938,-0.0858,-0.0869,-0.0945,-0.0968,-0.0987,-0.092,-0.0707,0,0,0,0,0,-0.0501,-0.0545,-0.0539,-0.0573,-0.0597,-0.0605,-0.0626,-0.0637,-0.0664,-0.0685,-0.0707,-0.0764,-0.0827,-0.0868,-0.0913,-0.1008,-0.0934,-0.1102,-0.1121,-0.1137,-0.1092,-0.1085,-0.1097,-0.0972,-0.0971,-0.0971,0,0,-0.0517,-0.0538,-0.056,-0.0583,-0.0616,-0.0634,-0.0622,-0.0683,-0.0705,-0.0688,-0.0766,-0.0817,-0.0861,-0.0979,-0.1029,-0.0998,-0.1138,-0.115,-0.1163,-0.1107,-0.1096,-0.1108,-0.1118,-0.0978,-0.0977,-0.0976,0,0,-0.0575,-0.0603,-0.0658,-0.0676,-0.0723,-0.0707,-0.0719,-0.0753,-0.0795,-0.0858,-0.0875,-0.0967,-0.1056,-0.1113,-0.1151,-0.1296,-0.1226,-0.1357,-0.1414,-0.1412,-0.1419,-0.1425,-0.1344,-0.1342,-0.1383,-0.1384,-0.1384,0,-0.0586,-0.0643,-0.0672,-0.0728,-0.0757,-0.0732,-0.0779,-0.0802,-0.0839,-0.0905,-0.091,-0.1075,-0.1119,-0.1244,-0.1308,-0.1339,-0.1284,-0.1323,-0.1429,-0.1434,-0.1438,-0.1353,-0.1348,-0.1391,-0.139,-0.1389,-0.1389,0,-0.0661,-0.072,-0.0771,-0.0809,-0.0841,-0.0889,-0.0906,-0.0962,-0.1007,-0.1033,-0.1183,-0.1236,-0.1317,-0.1404,-0.1397,-0.1494,-0.1425,-0.1437,-0.1354,-0.1457,-0.1363,-0.1355,-0.1402,-0.1399,-0.1397,-0.1395,0,0,-0.061,-0.0786,-0.0788,-0.0844,-0.0901,-0.0916,-0.1009,-0.1069,-0.1119,-0.1217,-0.1296,-0.1454,-0.1466,-0.1504,-0.1538,-0.1564,-0.1564,-0.1515,-0.1511,-0.1399,-0.1488,-0.1314,-0.1288,-0.1593,-0.1593,-0.1593,-0.1408,0,-0.0638,-0.0756,-0.0837,-0.0912,-0.0971,-0.1037,-0.1093,-0.1167,-0.1232,-0.1294,-0.1412,-0.1467,-0.1505,-0.1539,-0.1583,-0.156,-0.1551,-0.1607,-0.1431,-0.1423,-0.123,-0.1277,-0.1593,-0.1402,-0.14,-0.1398,-0.1397,0,-0.0637,-0.0728,-0.0834,-0.0989,-0.1023,-0.1039,-0.1144,-0.12,-0.1308,-0.1383,-0.1482,-0.1503,-0.1563,-0.1556,-0.155,-0.1579,-0.1519,-0.1501,-0.1495,-0.1261,-0.1235,-0.1282,-0.1382,-0.1384,-0.1385,-0.1386,-0.1387,0,-0.0536,-0.0705,-0.0788,-0.0835,-0.0989,-0.1064,-0.1111,-0.1229,-0.1291,-0.1375,-0.1401,-0.1495,-0.1475,-0.1483,-0.1434,-0.1484,-0.1368,-0.1438,-0.1215,-0.12,-0.1348,-0.1343,-0.1382,-0.1383,-0.1383,-0.1383,-0.1384,0,-0.05,-0.0566,-0.0739,-0.0781,-0.0857,-0.0996,-0.1061,-0.1151,-0.125,-0.1247,-0.1377,-0.133,-0.1447,-0.1401,-0.1395,-0.1241,-0.1324,-0.1178,-0.1142,-0.1412,-0.1417,-0.134,-0.1338,-0.1376,-0.1378,-0.1379,-0.1381,0,-0.0386,-0.0502,-0.0609,-0.0781,-0.0814,-0.0857,-0.0985,-0.1029,-0.1124,-0.1107,-0.1109,-0.1184,-0.1091,-0.1164,-0.1123,-0.112,-0.1046,-0.0958,-0.116,-0.1145,-0.0889,-0.0897,-0.0714,-0.0707,-0.07,-0.0695,-0.069,0,-0.0354,-0.0393,-0.0554,-0.0588,-0.0662,-0.0738,-0.0778,-0.0925,-0.0923,-0.0948,-0.0884,-0.0848,-0.0856,-0.0696,-0.078,-0.0747,-0.075,-0.072,-0.0889,-0.0837,-0.0822,-0.084,-0.0856,-0.068,-0.0678,-0.0677,-0.0675,0,-0.0293,-0.0339,-0.0428,-0.049,-0.0534,-0.0584,-0.0616,-0.0609,-0.0695,-0.0757,-0.0635,-0.0622,-0.0499,-0.0528,-0.0493,-0.0483,-0.0781,-0.0654,-0.067,-0.0829,-0.0793,-0.0789,-0.0812,-0.0652,-0.0656,-0.0658,-0.0659,0,-0.0236,-0.0258,-0.0355,-0.0402,-0.0451,-0.0438,-0.048,-0.0448,-0.0479,-0.0496,-0.039,-0.0388,-0.0401,-0.0369,-0.0321,-0.032,-0.0355,-0.042,-0.045,-0.0475,-0.0495,-0.0421,-0.0095,0,0,0,0,0,-0.0182,-0.02,-0.0256,-0.0324,-0.0368,-0.0385,-0.0382,-0.0415,-0.0425,-0.0302,-0.0371,-0.0244,-0.0203,-0.0207,-0.0163,-0.0222,-0.0373,-0.0171,-0.0469,-0.0528,-0.0554,-0.0607,0,0,0,0,0,0,-0.0159,-0.0196,-0.0239,-0.0253,-0.0269,-0.0296,-0.0299,-0.0302,-0.0235,-0.0239,-0.0215,-0.0212,-0.0183,-0.0214,-0.0152,-0.0152,-0.0331,-0.0165,-0.0163,-0.0513,-0.0537,-0.0557,-0.0621,0,0,0,0,0]},{"header":{"parameterUnit":"m.s-1","parameterCategory":2,"la1":30.2991,"la2":30.254,"lo1":-89.0895,"lo2":-89.0444,"dy":0.0017,"dx":0.0017,"nx":28,"ny":28,"refTime":"2023-08-14T09:00:00:Z","depth":"4","parameterNumber":3,"parameterNumberName":"V-component_of_CURRENTS"},"data":[0,0,0,0,0,0,0,0,0,0,0,0,0,0,0,0,0,0,0,0,0,0,0,0,0,0,0,0,0,0,0,0,0,0,0,0,0,0,0,0,0,0,0,0,0,0,0,0,0,0,0,0,0,0,0,0,0,0,0.0036,0.0036,0,0.0047,0.0047,0.0047,0.0109,0.0111,0.0112,0.0113,0.0202,0.0204,0.0205,0,0,0,0,0,0,0,0,0,0,0,0,0,0.0138,0.0136,0.0036,0.0036,0.0036,0.0047,0.0047,0.0047,0.0109,0.0111,0.0112,0.0114,0.0202,0.0203,0.0205,0,0,0,0,0,0,0,0,0,0,0,0,0,0.0118,0.0135,0.0036,0.0066,0.0068,0.0046,0.0047,0.0048,0.0109,0.0111,0.0113,0.0114,0.0201,0.0203,0.0205,0.018,0,0,0.0211,0.0212,0,0,0,0,0,0,0,0,0.0119,0.0115,0.0062,0.0064,0.0066,0.0076,0.0116,0.0095,0.0108,0.0097,0.0113,0.0115,0.0164,0.0169,0.017,0.0185,0.0188,0.0211,0.0212,0.0213,0.0213,0,0,0,0,0,0,0,0.0121,0.0115,0.0044,0.0061,0.0064,0.0102,0.01,0.0112,0.0124,0.0098,0.0102,0.0097,0.0167,0.0168,0.0173,0.019,0.0211,0.0213,0.0214,0.0215,0.0229,0.0229,0,0,0,0,0,0,0.0107,0.0115,0.0043,0.0044,0.0094,0.0098,0.0097,0.0074,0.0122,0.013,0.0096,0.01,0.0164,0.0171,0.0176,0.0203,0.0213,0.0215,0.0216,0.023,0.0229,0.0228,0,0,0,0,0,0,0.0108,0.0099,0.0043,0.0079,0.0074,0.0093,0.0067,0.0073,0.0083,0.0119,0.0129,0.0101,0.0166,0.0174,0.0173,0.0206,0.0216,0.0217,0.0231,0.023,0.0229,0.0223,0,0,0,0,0,0,0.0111,0.0099,0.0092,0.0077,0.0071,0.0025,0.0065,0.0071,0.0076,0.0082,0.0127,0.0137,0.0168,0.017,0.0175,0.0208,0.0219,0.0232,0.023,0.0229,0.0225,0.0222,0.022,0,0,0,0,0,0.0114,0.0087,0.0091,0.0083,0.0055,0.0023,0.0024,0.0047,0.0074,0.0067,0.009,0.0136,0.0167,0.017,0.0176,0.0211,0.0232,0.0231,0.0229,0.0226,0.0223,0.022,0,0,0,0,0,0,0.0119,0.009,0.0094,0.0058,0.0041,0.0033,0.0041,0.0042,0.0054,0.0072,0.0109,0.0118,0.0129,0.0155,0.0158,0.0207,0.0214,0.0214,0.0209,0.0207,0.0205,0.0209,0.022,0,0,0,0,0,0.0114,0.0102,0.0067,0.0045,0.0038,0.0039,0.0036,0.0038,0.0039,0.0048,0.0072,0.0104,0.0123,0.0152,0.0158,0.0183,0.021,0.0212,0.021,0.0208,0.0213,0.0275,0.0281,0.0223,0.0223,0.0223,0,0,0.012,0.0098,0.0096,0.0049,0.0052,0.0008,0.0044,0.0031,-0.0003,0.0055,0.004,0.008,0.0116,0.0139,0.0152,0.0175,0.0231,0.0206,0.0205,0.0211,0.0275,0.0281,0.0286,0.0222,0.0222,0.0222,0,0,0.0106,0.0096,0.0076,0.0045,0.0023,0.0008,-0.0003,-0.0021,-0.0015,-0.0032,0.0003,0.005,0.0078,0.0117,0.0142,0.0127,0.0197,0.0151,0.0178,0.0238,0.0244,0.025,0.0267,0.0275,0.0179,0.0179,0.0178,0,0.012,0.0062,0.0067,0.0018,-0.0012,-0.0003,-0.0056,-0.0065,-0.0083,-0.0076,-0.0038,0.0028,0.0067,0.0107,0.0128,0.0127,0.0167,0.019,0.0239,0.0245,0.0252,0.0268,0.0277,0.0178,0.0178,0.0178,0.0178,0,0.007,0.0022,0.0008,-0.0053,-0.0086,-0.0125,-0.0159,-0.0171,-0.0147,-0.0141,-0.0097,-0.0029,0.0033,0.0062,0.0107,0.0178,0.019,0.021,0.0253,0.0258,0.0274,0.0283,0.0177,0.0178,0.0178,0.0178,0,0,0.0129,-0.0003,0.0003,-0.0061,-0.0132,-0.017,-0.0219,-0.0254,-0.0259,-0.0215,-0.0198,-0.0105,-0.0013,0.002,0.0097,0.0181,0.0266,0.0245,0.0248,0.0273,0.0392,0.0256,0.0253,0.0322,0.0324,0.0326,0.0376,0,0.0101,-0.002,-0.0072,-0.0179,-0.0252,-0.028,-0.0326,-0.035,-0.0325,-0.0307,-0.0199,-0.0137,-0.0048,0.004,0.0125,0.022,0.0295,0.0249,0.0372,0.0374,0.0265,0.0261,0.0333,0.0383,0.0385,0.0387,0.0388,0,0.0089,-0.0009,-0.0118,-0.027,-0.0293,-0.0331,-0.038,-0.042,-0.0394,-0.0355,-0.0256,-0.0181,-0.0051,0.0035,0.0212,0.0193,0.0302,0.0377,0.0381,0.0267,0.0256,0.0382,0.0405,0.0404,0.0402,0.0401,0.04,0,0.0135,-0.0031,-0.012,-0.0172,-0.0327,-0.0339,-0.0379,-0.039,-0.0405,-0.0333,-0.0298,-0.0178,-0.0074,0.007,0.0213,0.0256,0.0371,0.0434,0.0397,0.0387,0.0501,0.0495,0.0561,0.0561,0.0561,0.0561,0.0561,0,0.0114,0.0053,-0.0091,-0.0141,-0.0219,-0.0309,-0.0334,-0.0346,-0.0345,-0.035,-0.0266,-0.0231,-0.0039,0.0031,0.0176,0.0272,0.0341,0.0389,0.0395,0.049,0.0482,0.0506,0.0499,0.0563,0.0563,0.0562,0.0562,0,0.0194,0.0091,-0.0015,-0.0162,-0.0192,-0.0215,-0.0299,-0.0332,-0.0308,-0.0305,-0.0265,-0.0229,-0.0145,-0.0045,0.0145,0.0211,0.032,0.0338,0.0369,0.0377,0.0316,0.0308,0.0338,0.0334,0.0331,0.0328,0.0325,0,0.0213,0.017,0.0029,-0.0012,-0.0056,-0.012,-0.0176,-0.0253,-0.0289,-0.0313,-0.0314,-0.0265,-0.0232,-0.0089,0.0002,0.0158,0.0203,0.0254,0.0359,0.0292,0.0296,0.0294,0.0291,0.0319,0.0318,0.0317,0.0316,0,0.026,0.0255,0.0162,0.0094,0.0029,-0.0102,-0.0171,-0.0193,-0.0288,-0.0305,-0.0289,-0.0241,-0.0217,-0.0116,-0.0051,0.0082,0.0218,0.0219,0.0231,0.0331,0.027,0.0276,0.0278,0.0304,0.0306,0.0307,0.0308,0,0.0349,0.0308,0.0238,0.0166,0.0108,-0.0003,-0.0103,-0.0179,-0.0235,-0.0264,-0.0278,-0.0242,-0.0231,-0.0164,-0.01,-0.0025,0.0059,0.0166,0.0183,0.0198,0.0122,0.0022,-0.0019,0,0,0,0,0,0.0419,0.0366,0.0303,0.0188,0.0152,0.0112,-0.0066,-0.0184,-0.0285,-0.0252,-0.0248,-0.0222,-0.0154,-0.0159,-0.0089,-0.0166,0.0045,-0.0087,0.0174,0.0234,0.0249,0.0169,0,0,0,0,0,0,0.0438,0.0415,0.0315,0.0276,0.0258,0.0144,0.0054,-0.0079,-0.0079,-0.0134,-0.0102,-0.0131,-0.0082,-0.0116,-0.0033,-0.0036,0.0146,-0.0079,-0.0077,0.0226,0.0239,0.0251,0.0174,0,0,0,0,0]}]]